When you browse on this site, cookies collect data to enhance your experience and personalize the content and advertising you see.
Visit our Privacy Policy to learn more. By continuing to use the site, you agree to this use of cookies and data.
  • In Latvia
  • List of Countries
  • For 7 days
  • Water Temperature
  • Weather Map
  • Weather Widgets
  • user-avatar
    Login

    Hourly Weather Gossau

    Today, 19 October, Saturday

    Time Temperature Precipitation Wind Pressure Humidity
    00:00 +11°C° 0 mm 1 mps 703 mmHg 89%
    01:00 +11°C° 0 mm 1 mps 703 mmHg 89%
    02:00 +11°C° 0 mm 1 mps 703 mmHg 89%
    03:00 +10°C° 0 mm 2 mps 702 mmHg 88%
    04:00 +9°C° 0 mm 2 mps 702 mmHg 88%
    05:00 +9°C° 0 mm 2 mps 702 mmHg 89%
    06:00 +10°C° 0 mm 1 mps 702 mmHg 90%
    07:00 +10°C° 0 mm 1 mps 702 mmHg 94%
    08:00 +11°C° 0.1 mm 1 mps 702 mmHg 93%
    09:00 +11°C° 0.1 mm 1 mps 702 mmHg 93%
    10:00 +12°C° 0.1 mm 1 mps 702 mmHg 92%
    11:00 +13°C° 0.1 mm 1 mps 702 mmHg 90%
    12:00 +14°C° 0.1 mm 1 mps 702 mmHg 87%
    13:00 +14°C° 0.1 mm 1 mps 702 mmHg 85%
    14:00 +15°C° 0 mm 1 mps 702 mmHg 83%
    15:00 +15°C° 0 mm 1 mps 702 mmHg 81%
    16:00 +16°C° 0 mm 1 mps 702 mmHg 79%
    17:00 +15°C° 0 mm 2 mps 701 mmHg 83%
    18:00 +13°C° 0 mm 2 mps 701 mmHg 87%
    19:00 +12°C° 0 mm 2 mps 701 mmHg 91%
    20:00 +10°C° 0 mm 2 mps 701 mmHg 90%
    21:00 +10°C° 0 mm 2 mps 701 mmHg 90%
    22:00 +11°C° 0 mm 1 mps 701 mmHg 90%
    23:00 +10°C° 0 mm 2 mps 701 mmHg 89%

    Tomorrow, 20 October, Sunday

    Time Temperature Precipitation Wind Pressure Humidity
    00:00 +9°C° 0 mm 2 mps 701 mmHg 89%
    01:00 +9°C° 0 mm 2 mps 702 mmHg 89%
    02:00 +9°C° 0 mm 2 mps 701 mmHg 89%
    03:00 +10°C° 0 mm 1 mps 701 mmHg 89%
    04:00 +10°C° 0 mm 1 mps 701 mmHg 89%
    05:00 +10°C° 0 mm 1 mps 701 mmHg 89%
    06:00 +10°C° 0 mm 1 mps 701 mmHg 89%
    07:00 +9°C° 0 mm 2 mps 701 mmHg 89%
    08:00 +12°C° 0 mm 2 mps 702 mmHg 82%
    09:00 +14°C° 0 mm 2 mps 702 mmHg 76%
    10:00 +16°C° 0 mm 2 mps 702 mmHg 69%
    11:00 +18°C° 0 mm 2 mps 703 mmHg 65%
    12:00 +19°C° 0 mm 2 mps 703 mmHg 61%
    13:00 +20°C° 0 mm 2 mps 703 mmHg 57%
    14:00 +20°C° 0 mm 2 mps 702 mmHg 61%
    15:00 +19°C° 0 mm 2 mps 702 mmHg 64%
    16:00 +19°C° 0 mm 2 mps 702 mmHg 68%
    17:00 +17°C° 0 mm 2 mps 702 mmHg 71%
    18:00 +16°C° 0 mm 2 mps 702 mmHg 74%
    19:00 +14°C° 0 mm 2 mps 703 mmHg 77%
    20:00 +14°C° 0 mm 2 mps 703 mmHg 77%
    21:00 +13°C° 0 mm 2 mps 703 mmHg 78%
    22:00 +13°C° 0 mm 2 mps 703 mmHg 79%
    23:00 +13°C° 0 mm 1 mps 703 mmHg 80%

    Day after tomorrow, 21 October, Monday

    Time Temperature Precipitation Wind Pressure Humidity
    00:00 +13°C° 0 mm 1 mps 703 mmHg 80%
    01:00 +13°C° 0 mm 1 mps 704 mmHg 81%
    02:00 +12°C° 0 mm 1 mps 704 mmHg 82%
    03:00 +12°C° 0 mm 1 mps 704 mmHg 83%
    04:00 +12°C° 0 mm 1 mps 704 mmHg 85%
    05:00 +12°C° 0.1 mm 1 mps 704 mmHg 86%
    06:00 +12°C° 0.1 mm 1 mps 705 mmHg 88%
    07:00 +12°C° 0.1 mm 1 mps 705 mmHg 89%
    08:00 +13°C° 0.4 mm 1 mps 706 mmHg 89%
    09:00 +13°C° 0.4 mm 1 mps 706 mmHg 88%
    10:00 +14°C° 0.4 mm 1 mps 707 mmHg 88%
    11:00 +15°C° 0.3 mm 1 mps 707 mmHg 87%
    12:00 +15°C° 0.3 mm 1 mps 707 mmHg 87%
    13:00 +15°C° 0.3 mm 1 mps 708 mmHg 87%
    14:00 +15°C° 0 mm 1 mps 707 mmHg 88%
    15:00 +15°C° 0 mm 1 mps 707 mmHg 88%
    16:00 +15°C° 0 mm 1 mps 707 mmHg 89%
    17:00 +14°C° 0 mm 1 mps 708 mmHg 90%
    18:00 +14°C° 0 mm 1 mps 708 mmHg 91%
    19:00 +13°C° 0 mm 1 mps 708 mmHg 93%
    20:00 +13°C° 0.1 mm 1 mps 709 mmHg 93%
    21:00 +12°C° 0.1 mm 1 mps 709 mmHg 93%
    22:00 +12°C° 0.1 mm 1 mps 709 mmHg 93%
    23:00 +12°C° 0 mm 1 mps 709 mmHg 93%

    22 October, Tuesday

    Time Temperature Precipitation Wind Pressure Humidity
    00:00 +11°C° 0 mm 1 mps 709 mmHg 93%
    01:00 +11°C° 0 mm 1 mps 709 mmHg 93%
    02:00 +11°C° 0 mm 1 mps 709 mmHg 93%
    03:00 +10°C° 0 mm 0 mps 709 mmHg 93%
    04:00 +10°C° 0 mm 0 mps 709 mmHg 93%
    05:00 +10°C° 0 mm 0 mps 709 mmHg 94%
    06:00 +10°C° 0 mm 0 mps 709 mmHg 94%
    07:00 +11°C° 0 mm 1 mps 709 mmHg 94%
    08:00 +12°C° 0 mm 1 mps 709 mmHg 92%
    09:00 +12°C° 0 mm 1 mps 709 mmHg 90%
    10:00 +13°C° 0 mm 1 mps 709 mmHg 87%
    11:00 +14°C° 0 mm 1 mps 709 mmHg 85%
    12:00 +14°C° 0 mm 1 mps 709 mmHg 83%
    13:00 +15°C° 0 mm 1 mps 709 mmHg 81%
    14:00 +15°C° 0 mm 1 mps 709 mmHg 83%
    15:00 +15°C° 0 mm 1 mps 708 mmHg 84%
    16:00 +15°C° 0 mm 1 mps 708 mmHg 85%
    17:00 +14°C° 0 mm 1 mps 708 mmHg 87%
    18:00 +13°C° 0 mm 1 mps 708 mmHg 90%
    19:00 +12°C° 0 mm 1 mps 708 mmHg 92%
    20:00 +12°C° 0 mm 1 mps 708 mmHg 93%
    21:00 +11°C° 0 mm 1 mps 708 mmHg 93%
    22:00 +11°C° 0 mm 1 mps 708 mmHg 94%
    23:00 +10°C° 0 mm 1 mps 707 mmHg 94%

    23 October, Wednesday

    Time Temperature Precipitation Wind Pressure Humidity
    00:00 +10°C° 0 mm 1 mps 707 mmHg 94%
    01:00 +10°C° 0 mm 1 mps 707 mmHg 94%
    02:00 +10°C° 0 mm 1 mps 707 mmHg 94%
    03:00 +10°C° 0 mm 1 mps 707 mmHg 94%
    04:00 +10°C° 0 mm 1 mps 706 mmHg 93%
    05:00 +10°C° 0 mm 1 mps 706 mmHg 93%
    06:00 +10°C° 0 mm 1 mps 706 mmHg 93%
    07:00 +10°C° 0 mm 1 mps 706 mmHg 93%
    08:00 +12°C° 0 mm 1 mps 706 mmHg 89%
    09:00 +13°C° 0 mm 1 mps 706 mmHg 85%
    10:00 +14°C° 0 mm 1 mps 706 mmHg 80%
    11:00 +15°C° 0 mm 1 mps 706 mmHg 77%
    12:00 +16°C° 0 mm 1 mps 706 mmHg 73%
    13:00 +17°C° 0 mm 2 mps 705 mmHg 70%
    14:00 +17°C° 0 mm 2 mps 705 mmHg 73%
    15:00 +16°C° 0 mm 1 mps 705 mmHg 77%
    16:00 +16°C° 0 mm 1 mps 704 mmHg 80%
    17:00 +15°C° 0 mm 1 mps 704 mmHg 82%
    18:00 +13°C° 0 mm 1 mps 704 mmHg 85%
    19:00 +12°C° 0 mm 1 mps 704 mmHg 87%
    20:00 +12°C° 0 mm 1 mps 704 mmHg 87%
    21:00 +11°C° 0 mm 1 mps 703 mmHg 86%
    22:00 +10°C° 0 mm 2 mps 703 mmHg 86%
    23:00 +11°C° 0 mm 1 mps 703 mmHg 84%

    24 October, Thursday

    Time Temperature Precipitation Wind Pressure Humidity
    00:00 +12°C° 0 mm 1 mps 703 mmHg 82%
    01:00 +12°C° 0 mm 1 mps 703 mmHg 80%
    02:00 +12°C° 0 mm 1 mps 703 mmHg 80%
    03:00 +11°C° 0 mm 1 mps 703 mmHg 81%
    04:00 +11°C° 0 mm 1 mps 703 mmHg 81%
    05:00 +11°C° 0 mm 1 mps 703 mmHg 82%
    06:00 +11°C° 0 mm 1 mps 703 mmHg 82%
    07:00 +10°C° 0 mm 1 mps 703 mmHg 83%
    08:00 +12°C° 0 mm 1 mps 703 mmHg 79%
    09:00 +14°C° 0 mm 1 mps 703 mmHg 74%
    10:00 +15°C° 0 mm 1 mps 703 mmHg 70%
    11:00 +16°C° 0 mm 1 mps 704 mmHg 67%
    12:00 +18°C° 0 mm 1 mps 704 mmHg 64%
    13:00 +19°C° 0 mm 1 mps 704 mmHg 62%
    14:00 +19°C° 0 mm 1 mps 704 mmHg 67%
    15:00 +18°C° 0 mm 1 mps 703 mmHg 71%
    16:00 +16°C° 0 mm 0 mps 703 mmHg 76%
    17:00 +15°C° 0 mm 1 mps 703 mmHg 80%
    18:00 +14°C° 0 mm 1 mps 703 mmHg 83%
    19:00 +12°C° 0 mm 1 mps 703 mmHg 86%
    20:00 +12°C° 0 mm 1 mps 704 mmHg 86%
    21:00 +12°C° 0 mm 1 mps 704 mmHg 86%
    22:00 +12°C° 0 mm 1 mps 704 mmHg 86%
    23:00 +12°C° 0 mm 1 mps 704 mmHg 87%
    Show more